Regional Weather Roundup
Issued by NWS

Home | Current Version | Previous Version | Text Only | Print | Product List | Glossary Off
Versions: 1 2 3 4 5 6 7 8 9 10 11 12 13 14 15 16 17 18 19 20 21 22 23 24 25 26 27 28 29 30 31 32 33 34 35 36 37 38 39 40 41 42 43 44 45 46 47 48 49 50

000
ASUS45 KBOU 122310
RWRCO

WEATHER ROUNDUP FOR COLORADO
NATIONAL WEATHER SERVICE DENVER/BOULDER CO
500 PM MDT SAT JUL 12 2014

NOTE: "FAIR" INDICATES FEW OR NO CLOUDS BELOW 12000 FEET WITH NO
SIGNIFICANT WEATHER AND/OR OBSTRUCTIONS TO VISIBILITY.

COZ001>005-013-030-031-130000-
...NORTHWEST COLORADO...

CITY           SKY/WX    TMP DP  RH WIND       PRES   REMARKS
CRAIG          MOSUNNY   77  53  43 SW5       30.26F
HAYDEN         MOSUNNY   81  46  30 N5        30.28F
MEEKER         PTSUNNY   85  49  28 NE12      30.26F
MOUNT WERNER   NOT AVBL
STEAMBOAT SPGS MOSUNNY   80  52  37 W3        30.31F
WALDEN         MOSUNNY   70  52  52 N20       30.43F
$$

COZ006>008-011-130000-
...WEST CENTRAL VALLEYS...

CITY           SKY/WX    TMP DP  RH WIND       PRES   REMARKS
GRAND JUNCTION MOSUNNY   93  48  21 E20       30.10S
MONTROSE       SUNNY     93  45  19 NW14      30.18F
EAGLE          NOT AVBL
RIFLE          MOSUNNY   91  50  24 VRB6      30.17F
DELTA          MOSUNNY   97  41  14 SW6       30.11F
NUCLA          SUNNY     91  45  19 N13G18    30.23F
$$

COZ017>023-064>068-130000-
...SOUTHWEST COLORADO...

CITY           SKY/WX    TMP DP  RH WIND       PRES   REMARKS
DURANGO        CLOUDY    71  50  47 N17       30.33R
CORTEZ         SUNNY     82  49  31 SE17      30.21F
PAGOSA SPRINGS DRIZZLE   66  47  50 N8        30.39F
TELLURIDE      CLOUDY    64  52  63 SW3       30.50S
WOLF CREEK PAS NOT AVBL
$$

COZ009-010-012-014-032>034-037-058>063-130000-
...CENTRAL COLORADO...

CITY           SKY/WX    TMP DP  RH WIND       PRES   REMARKS
ASPEN          MOSUNNY   76  47  35 W10       30.35S
BUENA VISTA    PTSUNNY   74  43  32 S21G26    30.39R
COPPER MTN     MOSUNNY   63  37  39 W20G33    30.73R THUNDER
BERTHOUD PASS  PTSUNNY   48  34  57 CALM      30.79R THUNDER
COTTONWOOD PAS RAIN      68  43  40 N5        30.55R
GUNNISON       PTSUNNY   77  45  31 SW10      30.37R
KREMMLING      CLOUDY    73  54  49 CALM      30.36F
LEADVILLE      MOSUNNY   70  42  36 N12       30.51S
MONARCH PASS   LGT RAIN  52  37  58 W9G17     30.82F
SALIDA         PTSUNNY   74  48  39 E18G30    30.45R
SUNLIGHT       MOSUNNY   64  48  55 NW3       30.64S
WILKERSON PASS CLOUDY    50  48  93 E10       30.72R VSB<1/4
$$

COZ069>075-130000-
...SAN LUIS VALLEY/SANGRE DE CRISTO MOUNTAINS...

CITY           SKY/WX    TMP DP  RH WIND       PRES   REMARKS
ALAMOSA        PTSUNNY   74  45  35 E22G36    30.34S
LA VETA PASS   TSTM      46  45  93 W9G16     30.61F
SAGUACHE       NOT AVBL
$$

COZ035-036-038>040-130000-
...NORTHERN COLORADO FRONT RANGE...

CITY           SKY/WX    TMP DP  RH WIND       PRES   REMARKS
DENVER INTL AP TSTM      70  58  65 N24G32    30.27R
DMNS CITY PARK   N/A     70  62  78 N18G25    30.27R
AURORA         NOT AVBL
FRONT RANGE AP NOT AVBL
ERIE MUNI ARPT PTSUNNY   72  64  74 N5        30.27R
BOULDER MUN AP PTSUNNY   75  61  60 N6        30.29R
CENTENNIAL     PTSUNNY   77  58  51 NW7       30.28S
BROOMFIELD     PTSUNNY   72  64  78 NW14      30.30R
FORT COLLINS   CLOUDY    66  61  82 W9        30.29R
LONGMONT       CLOUDY    76  61  59 N18G25    30.30R
$$

COZ041-046-047-076>085-087-088-130000-
...PIKES PEAK/PALMER DIVIDE AND SOUTHERN FOOTHILLS...

CITY           SKY/WX    TMP DP  RH WIND       PRES   REMARKS
COLO. SPRINGS  CLOUDY    72  61  68 N9        30.33S
A. F. ACADEMY  NOT AVBL
ELLICOTT       TSTM      70  62  76 N7        30.29F
FALCON         CLOUDY    68  59  72 NE6       30.37F
FORT CARSON    NOT AVBL
LIMON          PTSUNNY   79  55  43 N14       30.25S
MONUMENT HILL  CLOUDY    72  52  49 E7        30.36F
TRINIDAD       PTSUNNY   88  46  23 E9        30.17R
$$

COZ042>045-048>051-090-091-130000-
...NORTHEAST COLORADO...

CITY           SKY/WX    TMP DP  RH WIND       PRES   REMARKS
GREELEY ARPT   NOT AVBL
AKRON          PTSUNNY   81  59  47 NE12      30.21S
BURLINGTON     MOSUNNY   84  62  47 NE10G21   30.16F
WRAY           PTSUNNY   86  62  43 NE9G18    30.14S
STERLING       SUNNY     84  64  51 NE10      30.17S
HOLYOKE        PTSUNNY   84  61  45 NE13      30.15S
FORT MORGAN    MOSUNNY   82  57  42 NE12G18   30.21S
$$

COZ086-089-092>099-130000-
...SOUTHEAST COLORADO...

CITY           SKY/WX    TMP DP  RH WIND       PRES   REMARKS
PUEBLO         PTSUNNY   84  56  38 E26G33    30.17R
LA JUNTA       MOSUNNY   96  57  27 NE17G25   30.09S
LAMAR          MOSUNNY   97  58  27 NE14      30.05S
SPRINGFIELD      N/A     95  52  23 S17       30.08F
$$



USA.gov is the U.S. government's official web portal to all federal, state and local government web resources and services.